Wind_Speed
20 19 18 18 17 17 17 17 16 16 17 18 18 18 18 17 17 17 17 17 17 18 18 17 17 18 18 18 18 18 18 19 19 19 19 19 20 20 21 20 20 20 20 20
20 20 20 20 19 18 18 18 18 18 17 17 18 19 19 20 19 18 19 19 19 19 20 19 19 19 20 20 19 19 20 20 20 21 21 21 21 21 21 21 22 22 22 22
21 21 21 21 21 21 20 19 20 19 18 18 19 19 20 21 20 20 20 21 21 21 20 20 20 21 21 21 21 20 21 20 21 21 22 22 22 23 23 23 23 24 25 24
22 21 23 21 21 21 21 21 21 20 20 20 20 20 22 22 21 20 21 21 21 21 20 20 21 22 23 23 22 21 21 22 22 23 23 23 24 24 24 24 25 25 25 25
23 24 23 22 21 21 22 22 21 22 22 22 22 22 23 22 21 21 20 21 21 22 22 22 23 24 25 25 24 23 23 23 24 24 24 24 24 25 25 25 26 26 25 25
23 23 23 21 21 22 23 23 22 23 22 22 22 22 22 23 23 22 22 22 22 23 24 24 25 25 25 24 24 24 24 24 25 25 25 25 25 25 25 26 26 26 26 25
23 23 23 22 22 23 24 24 23 23 24 23 23 22 22 23 23 24 24 24 23 23 24 25 25 25 25 25 25 25 26 26 26 26 26 26 26 26 26 26 27 26 26 26
24 24 23 23 24 25 25 24 24 24 24 24 23 23 23 24 25 26 26 25 24 24 25 25 26 26 26 26 27 27 27 27 28 27 27 27 26 26 26 27 27 27 27 27
26 25 24 23 24 24 25 24 23 22 22 22 21 22 23 24 25 26 25 25 25 26 26 27 27 27 27 28 27 28 28 28 28 28 27 26 26 26 27 27 27 28 27 27
25 25 25 25 26 25 24 23 22 22 22 21 20 21 22 23 24 25 25 26 27 27 28 28 28 29 29 29 29 29 29 28 28 28 28 28 27 27 27 28 28 27 27 27
26 25 26 26 27 26 26 25 24 23 22 21 20 21 22 24 24 25 26 26 27 28 28 28 29 28 28 29 29 29 29 28 28 28 28 28 27 28 28 28 28 28 28 28
25 25 26 26 27 26 25 25 24 24 23 22 21 22 23 23 24 25 25 26 26 27 28 29 28 28 28 29 29 29 29 28 28 28 27 27 27 27 28 28 28 28 28 29
24 24 25 25 25 25 25 25 25 24 23 23 24 23 23 24 24 25 26 27 27 28 28 28 28 28 28 29 29 29 29 28 28 28 27 27 28 28 28 28 28 28 28 28
24 24 25 25 25 25 24 24 24 24 24 24 24 24 24 25 25 26 27 27 28 28 28 28 29 29 29 30 29 29 29 28 28 28 28 28 29 28 28 28 28 27 28 28
23 24 24 24 25 24 23 23 23 23 24 24 25 24 25 25 26 26 27 28 28 29 28 28 28 29 30 30 29 29 28 28 28 29 29 29 29 29 29 29 28 28 28 28
25 25 25 24 24 24 23 22 23 23 23 24 25 24 25 26 26 26 27 28 29 29 29 29 29 29 29 29 29 29 28 29 29 29 29 30 30 30 29 29 29 28 29 28
25 25 25 25 25 24 23 24 24 24 23 23 24 24 25 25 26 26 27 29 29 29 29 29 29 29 30 29 29 29 29 29 29 29 29 30 30 29 29 29 28 29 29 28
25 25 25 25 24 24 24 24 24 24 24 23 23 24 25 25 26 27 27 28 28 28 29 29 29 29 29 29 29 29 29 29 28 28 28 28 28 28 28 28 28 29 28 28
24 24 24 24 24 25 25 25 25 25 25 25 25 25 25 26 26 27 27 28 27 28 28 28 27 27 28 29 29 29 28 28 28 28 28 28 28 28 28 28 28 28 28 28
24 24 24 24 25 25 25 25 25 25 24 24 24 24 25 26 26 27 26 26 27 27 27 27 27 28 28 28 28 27 27 27 27 27 28 28 28 28 28 28 28 28 28 27
23 24 24 24 24 24 24 24 24 24 25 24 24 25 25 25 26 25 25 26 27 27 27 27 27 27 27 27 26 26 26 26 26 26 26 26 26 26 26 26 26 26 27 27
23 23 23 23 24 24 24 24 24 24 24 24 24 24 25 25 26 25 25 26 26 25 25 26 26 27 27 26 26 26 26 26 25 25 25 25 25 25 25 25 26 26 26 27
22 22 23 23 24 24 24 24 24 25 24 23 23 24 25 26 25 25 25 24 25 25 25 25 26 26 26 26 27 26 26 25 25 25 25 25 25 25 25 25 26 26 26 26
23 23 24 24 24 24 24 25 25 25 25 24 24 24 25 25 25 24 24 24 24 25 25 25 25 25 26 26 26 26 25 25 25 24 24 24 25 25 25 25 25 26 26 26
23 22 23 24 25 24 24 24 24 23 24 23 23 23 24 24 24 25 25 24 24 24 24 24 25 25 25 25 25 25 24 24 24 24 24 25 25 25 25 26 25 26 26 25
23 22 22 23 23 23 24 24 24 24 24 24 25 25 25 25 24 24 23 23 23 24 24 24 24 24 24 24 24 23 23 23 23 23 24 24 24 25 26 26 25 26 26 25
24 23 23 23 23 23 23 23 24 24 23 23 23 24 24 24 23 23 23 23 24 24 24 25 24 24 23 23 23 23 23 23 23 23 24 24 25 25 25 25 26 26 25 25
Wind_Direction
245 244 246 250 254 256 257 260 263 269 273 279 283 288 287 289 295 301 307 310 307 308 310 311 311 312 310 310 308 307 307 308 307 306 306 306 305 304 303 302 301 301 300 298
245 246 245 247 249 254 258 261 262 266 271 277 284 287 287 289 293 299 304 304 304 304 307 309 309 309 308 307 306 306 305 305 305 304 304 305 306 306 303 302 302 301 300 297
247 247 249 249 250 255 258 259 259 264 270 277 283 282 284 289 290 293 298 301 303 304 305 305 306 306 306 304 303 303 302 303 304 303 303 303 303 304 303 302 301 300 298 296
249 248 246 250 250 254 258 260 262 265 270 275 277 281 284 286 289 292 294 297 299 300 301 302 303 305 306 306 304 303 302 302 303 303 302 301 301 302 302 301 300 299 297 296
249 250 249 250 251 253 257 261 264 267 270 273 276 283 285 287 289 295 295 295 297 297 298 300 302 303 304 304 305 304 303 303 302 301 300 300 301 302 302 302 300 299 299 298
250 251 252 250 251 256 260 263 265 269 271 275 279 282 284 287 289 291 294 295 296 296 296 299 300 301 303 303 303 303 303 302 302 300 299 299 300 301 301 301 300 298 297 298
252 253 254 252 251 254 258 264 267 271 273 275 279 281 283 286 289 289 292 294 295 295 297 298 298 300 302 303 303 302 303 303 303 301 300 300 300 301 301 300 300 300 299 297
251 251 253 254 253 254 258 262 266 270 273 277 279 282 285 285 286 289 291 291 293 295 297 297 298 300 302 302 302 302 302 302 302 300 300 299 298 300 301 301 301 299 299 297
253 254 255 255 255 257 259 262 267 271 273 275 278 281 283 284 286 290 291 292 293 294 295 295 297 299 301 302 301 301 300 300 300 300 299 298 298 298 300 301 301 299 299 298
252 253 255 258 259 259 260 263 268 272 276 275 278 281 280 282 287 291 292 292 292 293 294 297 298 299 299 300 300 300 299 299 298 298 298 298 297 297 298 299 299 299 297 295
254 254 255 257 258 260 261 263 268 271 275 277 280 282 282 284 286 287 289 291 292 294 296 298 299 299 300 301 300 299 298 298 298 297 297 297 297 297 297 297 298 298 296 294
253 252 254 255 257 259 261 264 267 270 274 275 277 280 281 283 284 286 288 291 293 294 296 298 299 300 301 301 301 300 300 299 298 298 297 298 297 298 298 298 298 298 296 295
252 251 253 256 257 257 259 263 268 270 273 275 278 279 280 282 284 286 288 290 292 294 295 297 299 301 302 302 302 301 301 300 298 298 297 297 298 298 298 297 297 297 296 297
250 252 255 256 257 259 262 266 268 269 272 275 278 281 283 285 287 289 291 292 294 296 297 298 300 301 302 302 302 301 300 299 297 297 298 298 298 298 297 296 296 298 299 299
251 252 255 257 259 261 264 267 270 271 274 277 281 283 285 285 288 291 293 294 296 297 298 298 300 301 302 303 302 301 299 298 297 297 297 298 297 297 297 297 297 297 298 298
252 252 256 259 260 262 264 268 273 274 276 280 282 284 285 287 289 291 294 296 297 297 297 298 299 300 302 303 303 303 300 299 298 298 297 297 297 296 296 295 295 295 295 296
252 252 255 258 260 262 265 269 274 275 276 280 281 283 286 288 290 292 295 297 297 296 297 298 299 300 301 302 302 302 301 299 298 298 298 298 297 296 294 294 293 293 294 295
252 251 254 257 260 262 266 269 272 276 277 281 281 284 286 289 291 293 295 297 297 296 297 298 300 300 300 301 301 300 299 299 299 299 299 299 299 297 295 294 294 294 295 295
249 251 252 254 257 261 264 268 272 275 279 282 284 286 287 290 292 294 296 298 298 297 297 298 300 301 301 302 302 301 300 299 299 300 300 300 298 297 296 296 296 296 295 296
246 249 251 254 257 260 263 268 271 275 279 282 283 285 287 290 293 294 297 298 300 301 301 300 300 301 301 303 303 302 301 301 302 301 300 300 299 299 299 299 298 297 295 295
247 249 251 255 258 260 264 269 272 276 279 280 283 286 289 292 293 294 295 298 300 301 301 300 300 301 303 304 305 305 304 305 306 305 304 303 302 301 301 301 301 299 297 296
246 248 251 255 257 260 264 268 273 277 279 281 283 286 288 291 293 294 297 299 301 302 302 302 302 302 304 305 305 305 306 306 306 306 306 305 304 304 304 304 303 303 301 300
246 250 254 257 259 260 264 269 274 277 279 282 284 286 288 291 294 296 297 299 301 303 303 304 304 304 305 306 305 305 304 304 305 305 305 305 306 306 306 305 305 305 305 304
251 253 256 258 260 262 265 269 273 275 277 279 283 287 289 291 293 296 298 300 301 302 303 303 304 305 306 307 306 305 304 303 304 306 307 308 308 309 308 308 307 307 307 306
253 254 256 260 262 261 265 270 274 275 277 280 284 287 290 293 295 297 300 300 301 303 304 306 307 308 309 309 308 307 306 305 306 307 309 310 310 310 309 309 309 310 309 308
255 255 258 261 262 263 264 267 271 277 281 282 283 285 289 292 294 296 299 301 302 303 304 306 308 309 310 311 312 310 306 305 307 308 309 310 311 311 311 311 311 311 310 309
254 255 257 260 264 266 267 269 271 275 280 282 283 285 288 291 293 295 298 300 302 303 304 305 307 308 309 310 311 311 310 309 308 309 310 311 311 310 311 312 313 312 310 308
Height
5890 5891 5892 5892 5893 5893 5893 5893 5893 5893 5892 5892 5892 5891 5890 5889 5888 5887 5886 5884 5883 5880 5878 5876 5874 5872 5869 5867 5864 5862 5860 5857 5855 5853 5851 5849 5847 5844 5841 5839 5837 5835 5833 5830
5885 5886 5887 5887 5888 5888 5888 5888 5888 5888 5888 5887 5887 5886 5886 5885 5883 5882 5881 5880 5878 5876 5874 5872 5869 5867 5865 5862 5860 5858 5855 5853 5851 5848 5846 5844 5842 5839 5836 5834 5831 5829 5827 5824
5880 5881 5881 5882 5883 5883 5883 5883 5883 5883 5884 5883 5883 5881 5881 5880 5879 5878 5876 5875 5873 5871 5869 5867 5865 5862 5860 5858 5855 5852 5850 5848 5845 5843 5841 5839 5836 5833 5831 5828 5825 5822 5820 5817
5873 5875 5876 5879 5877 5878 5878 5878 5878 5878 5878 5879 5878 5877 5876 5875 5874 5873 5872 5870 5868 5866 5865 5862 5860 5857 5855 5852 5849 5847 5845 5842 5840 5838 5835 5833 5830 5827 5825 5822 5819 5816 5813 5810
5867 5868 5869 5871 5871 5872 5872 5872 5872 5872 5873 5873 5873 5872 5870 5869 5869 5867 5866 5865 5863 5861 5859 5857 5855 5852 5849 5846 5844 5841 5839 5837 5834 5832 5829 5827 5824 5821 5818 5815 5812 5808 5805 5802
5860 5861 5863 5866 5866 5865 5867 5866 5867 5867 5867 5867 5866 5866 5865 5863 5863 5861 5860 5858 5857 5855 5853 5851 5849 5846 5844 5841 5838 5836 5834 5831 5828 5826 5823 5820 5817 5814 5811 5808 5805 5802 5799 5796
5854 5855 5856 5859 5860 5860 5861 5862 5861 5861 5861 5861 5860 5860 5859 5857 5856 5855 5853 5852 5851 5849 5847 5845 5843 5840 5838 5835 5832 5830 5827 5824 5822 5819 5816 5813 5810 5807 5804 5801 5798 5795 5792 5789
5848 5849 5852 5852 5853 5854 5855 5855 5855 5855 5855 5854 5853 5852 5851 5851 5849 5848 5846 5845 5844 5842 5840 5838 5836 5834 5831 5828 5826 5823 5820 5817 5814 5811 5808 5805 5803 5800 5797 5794 5791 5788 5785 5782
5843 5845 5845 5846 5847 5848 5848 5849 5849 5849 5848 5848 5847 5846 5845 5844 5843 5841 5840 5838 5837 5835 5833 5831 5829 5826 5824 5821 5818 5815 5812 5809 5806 5803 5800 5798 5795 5793 5790 5787 5784 5781 5778 5775
5835 5837 5838 5839 5840 5841 5842 5843 5843 5843 5842 5841 5840 5839 5839 5838 5837 5835 5833 5831 5830 5828 5826 5823 5821 5818 5815 5813 5810 5807 5804 5802 5799 5796 5793 5790 5787 5785 5782 5779 5776 5773 5770 5767
5829 5830 5831 5832 5833 5834 5835 5836 5836 5836 5836 5835 5834 5834 5833 5832 5830 5829 5827 5824 5822 5820 5818 5815 5813 5810 5807 5804 5801 5799 5796 5793 5791 5788 5785 5782 5780 5777 5774 5772 5768 5766 5762 5759
5822 5824 5825 5826 5827 5827 5828 5829 5830 5830 5829 5828 5827 5827 5826 5825 5823 5821 5820 5818 5815 5813 5811 5808 5805 5802 5799 5796 5793 5790 5788 5785 5782 5780 5777 5774 5772 5769 5766 5763 5760 5757 5754 5751
5815 5817 5818 5819 5820 5820 5821 5822 5822 5823 5823 5822 5821 5820 5819 5818 5817 5815 5813 5811 5808 5806 5803 5801 5798 5795 5792 5788 5785 5782 5780 5777 5774 5771 5769 5766 5764 5761 5758 5755 5752 5749 5746 5743
5808 5809 5811 5812 5812 5813 5814 5815 5815 5815 5815 5815 5815 5814 5812 5811 5809 5807 5805 5803 5800 5798 5795 5793 5790 5787 5784 5780 5777 5774 5771 5769 5766 5763 5761 5758 5755 5753 5750 5747 5745 5742 5738 5735
5801 5802 5803 5804 5805 5806 5807 5808 5808 5809 5808 5808 5807 5806 5805 5803 5802 5800 5798 5795 5793 5790 5787 5785 5781 5778 5775 5772 5769 5766 5763 5760 5758 5755 5752 5749 5747 5744 5742 5739 5736 5733 5730 5727
5795 5796 5796 5797 5798 5800 5801 5801 5802 5802 5801 5801 5799 5799 5797 5796 5794 5792 5790 5788 5785 5782 5779 5776 5774 5771 5768 5764 5761 5757 5755 5752 5749 5746 5744 5741 5738 5735 5733 5730 5727 5725 5722 5719
5788 5789 5790 5791 5792 5793 5794 5795 5795 5794 5794 5794 5793 5792 5790 5789 5787 5785 5782 5780 5777 5774 5771 5768 5766 5763 5760 5757 5753 5750 5746 5744 5741 5738 5735 5732 5729 5726 5724 5721 5719 5716 5714 5711
5781 5782 5783 5784 5785 5786 5787 5788 5788 5788 5787 5786 5786 5785 5783 5781 5779 5777 5775 5772 5770 5767 5764 5761 5758 5755 5752 5749 5745 5742 5738 5735 5732 5729 5726 5723 5720 5718 5715 5712 5710 5707 5704 5702
5774 5775 5776 5777 5778 5779 5780 5780 5781 5781 5780 5779 5778 5777 5776 5774 5772 5770 5767 5765 5762 5759 5756 5753 5750 5747 5744 5740 5737 5733 5730 5727 5724 5721 5718 5715 5712 5709 5706 5703 5701 5698 5695 5692
5767 5768 5769 5770 5771 5772 5773 5773 5774 5773 5773 5772 5771 5769 5768 5766 5764 5762 5759 5757 5754 5751 5748 5745 5742 5739 5736 5733 5729 5726 5723 5719 5716 5713 5710 5707 5704 5701 5698 5694 5692 5689 5686 5683
5761 5762 5762 5763 5764 5765 5766 5766 5766 5766 5765 5764 5763 5762 5760 5758 5756 5754 5751 5749 5747 5744 5741 5738 5734 5731 5728 5725 5722 5719 5715 5712 5709 5705 5702 5699 5695 5692 5689 5686 5683 5680 5677 5674
5753 5754 5755 5756 5757 5758 5759 5759 5758 5757 5757 5756 5755 5754 5753 5751 5749 5747 5744 5742 5739 5736 5733 5730 5727 5724 5721 5718 5715 5712 5708 5705 5702 5698 5695 5691 5688 5685 5682 5678 5675 5672 5669 5666
5746 5747 5748 5749 5750 5751 5751 5751 5751 5750 5750 5749 5748 5746 5745 5743 5742 5740 5737 5734 5731 5729 5726 5723 5719 5717 5714 5711 5708 5704 5701 5698 5695 5691 5687 5684 5681 5677 5674 5671 5667 5664 5661 5658
5739 5740 5741 5742 5743 5744 5744 5743 5744 5743 5743 5742 5740 5739 5737 5736 5734 5732 5730 5727 5724 5722 5719 5715 5712 5709 5706 5703 5700 5697 5694 5690 5687 5684 5680 5677 5673 5670 5667 5663 5660 5657 5653 5649
5731 5732 5734 5735 5735 5736 5736 5736 5736 5736 5735 5734 5734 5732 5730 5728 5727 5725 5723 5720 5717 5715 5712 5709 5705 5702 5699 5696 5693 5689 5686 5683 5680 5677 5673 5670 5666 5663 5659 5656 5652 5649 5645 5641
5725 5726 5727 5728 5728 5729 5729 5729 5729 5728 5728 5727 5726 5725 5723 5721 5719 5718 5715 5713 5710 5708 5705 5702 5699 5696 5692 5689 5686 5682 5679 5676 5673 5670 5667 5663 5659 5656 5652 5648 5644 5641 5637 5633
5718 5719 5720 5721 5721 5722 5722 5722 5721 5721 5721 5720 5719 5718 5716 5714 5713 5711 5708 5706 5703 5701 5698 5695 5692 5689 5686 5683 5680 5676 5673 5670 5667 5663 5660 5656 5653 5649 5645 5641 5637 5633 5629 5625